Tracking 25963 objects as of 13-Aug-2022
HD Live streaming from Space Station
objects crossing your sky now

STARLINK-3608

Track STARLINK-3608 now!
10-day predictions
STARLINK-3608 is classified as:


NORAD ID: 51776
Int'l Code: 2022-017J
Perigee: 545.7 km
Apogee: 548.0 km
Inclination: 53.2 °
Period: 95.4 minutes
Semi major axis: 6917 km
RCS: Unknown
Launch date: February 25, 2022
Source: United States (US)
Launch site: AIR FORCE WESTERN TEST RANGE (AFWTR)
aabbcc
Your satellite tracking list
Your tracking list is empty




NASA's NSSDC Master Catalog

Two Line Element Set (TLE):
1 51776U 22017J   22224.91668981 -.00011119  00000-0 -68123-3 0  9996
2 51776  53.2166  76.4692 0001679  66.4953 237.8496 15.08858956 27082
Source of the keplerian elements: AFSPC